This is the latest recevied weather packets stored in our database for station/object N7WSS. If no packets are shown the sender has not sent any weather packets the latest 10 day(s).
| Time | Temp. | Humidity | Pressure | Rain* | Wind** | Luminosity | Snow |
|---|---|---|---|---|---|---|---|
| 1787759509 | 36.11° C | 26% | 1014.5 hPa | 0 mm | - | - | - |
| 1787759205 | 35.56° C | 26% | 1014.3 hPa | 0 mm | - | - | - |
| 1787758904 | 35° C | 28% | 1014.5 hPa | 0 mm | - | - | - |
| 1787758599 | 34.44° C | 29% | 1014.4 hPa | 0 mm | - | - | - |
| 1787758298 | 34.44° C | 29% | 1014.4 hPa | 0 mm | - | - | - |
| 1787757993 | 34.44° C | 31% | 1014.5 hPa | 0 mm | - | - | - |
| 1787757690 | 34.44° C | 31% | 1014.7 hPa | 0 mm | - | - | - |
| 1787757390 | 34.44° C | 30% | 1014.2 hPa | 0 mm | - | - | - |
| 1787757084 | 33.89° C | 32% | 1014.5 hPa | 0 mm | - | - | - |
| 1787756778 | 33.89° C | 33% | 1014.2 hPa | 0 mm | - | - | - |
| 1787756474 | 33.33° C | 33% | 1014.5 hPa | 0 mm | - | - | - |
| 1787756172 | 32.78° C | 33% | 1014.3 hPa | 0 mm | - | - | - |
| 1787755868 | 31.67° C | 34% | 1014.3 hPa | 0 mm | - | - | - |
| 1787755567 | 31.11° C | 36% | 1014.3 hPa | 0 mm | - | - | - |
| 1787755261 | 30.56° C | 36% | 1014.4 hPa | 0 mm | - | - | - |
| 1787754960 | 30° C | 37% | 1014.3 hPa | 0 mm | - | - | - |
| 1787754656 | 29.44° C | 38% | 1014.4 hPa | 0 mm | - | - | - |
| 1787754354 | 28.89° C | 40% | 1014.4 hPa | 0 mm | - | - | - |
| 1787754049 | 27.78° C | 40% | 1014.2 hPa | 0 mm | - | - | - |
| 1787753748 | 28.33° C | 42% | 1014.3 hPa | 0 mm | - | - | - |
| 1787753447 | 27.78° C | 41% | 1014.1 hPa | 0 mm | - | - | - |
| 1787753145 | 27.78° C | 41% | 1014 hPa | 0 mm | - | - | - |
| 1787752841 | 26.67° C | 42% | 1013.9 hPa | 0 mm | - | - | - |
| 1787752540 | 26.11° C | 43% | 1013.7 hPa | 0 mm | - | - | - |
| 1787752236 | 25.56° C | 44% | 1013.9 hPa | 0 mm | - | - | - |
* Rain latest hour (hover to see other rain measurements)
** Current wind speed in m/s (hover to see current wind gust speed)